DW0664 Weather Reports


Display with metric or nautical units.
time (UTC)temp
F
wind
direction
speed
MPH
gust
MPH
rain 1hr
in
rain 24hr
in
rain mn
in
humidity
%
barometer
mb
20260509102906 73 69 0.0 0.0 0.00 0.00 0.00 98 1012.8
20260509102403 73 65 0.0 0.0 0.00 0.00 0.00 98 1012.7
20260509101859 73 65 0.0 0.0 0.00 0.00 0.00 98 1012.6
20260509101355 73 64 0.0 0.0 0.00 0.00 0.00 97 1012.6
20260509100853 73 64 0.0 0.0 0.00 0.00 0.00 97 1012.7
20260509100350 73 64 0.0 0.0 0.00 0.00 0.00 97 1012.4
20260509095846 73 63 0.0 0.0 0.00 0.00 0.00 97 1012.2
20260509095344 73 64 0.0 0.0 0.00 0.00 0.00 97 1012.3
20260509094841 73 65 0.0 0.0 0.00 0.00 0.00 97 1012.4
20260509094337 73 66 0.0 0.0 0.00 0.00 0.00 97 1012.1
20260509093835 73 67 0.0 1.0 0.00 0.00 0.00 97 1012.0
20260509093332 73 68 0.0 0.0 0.00 0.00 0.00 97 1011.5
20260509092831 73 74 0.0 1.0 0.00 0.00 0.00 97 1011.5
20260509092328 73 74 0.0 1.0 0.00 0.00 0.00 97 1011.9
20260509091826 73 68 0.0 0.0 0.00 0.00 0.00 97 1011.9
20260509091323 73 67 0.0 0.0 0.00 0.00 0.00 97 1011.9
20260509090820 73 62 0.0 0.0 0.00 0.00 0.00 97 1012.2
20260509090317 73 71 0.0 1.0 0.00 0.00 0.00 97 1012.0
20260509085814 73 66 0.0 0.0 0.00 0.00 0.00 97 1012.1
20260509085312 73 78 0.0 0.0 0.00 0.00 0.00 97 1012.2
20260509084808 73 65 0.0 0.0 0.00 0.00 0.00 97 1012.2
20260509084305 73 66 0.0 0.0 0.00 0.00 0.00 97 1012.5
20260509083803 73 65 0.0 0.0 0.00 0.00 0.00 97 1012.5
20260509083259 73 66 0.0 0.0 0.00 0.00 0.00 97 1012.3
20260509082756 73 65 0.0 0.0 0.00 0.00 0.00 97 1012.3
20260509082252 73 63 0.0 0.0 0.00 0.00 0.00 96 1012.5
20260509081749 73 62 0.0 1.0 0.00 0.00 0.00 96 1012.3
20260509081247 73 57 0.0 0.0 0.00 0.00 0.00 96 1012.4
20260509080745 73 69 0.0 1.0 0.00 0.00 0.00 96 1012.3
20260509080242 73 68 0.0 0.0 0.00 0.00 0.00 96 1012.4
20260509075741 73 69 0.0 1.0 0.00 0.00 0.00 96 1012.4
20260509075238 73 64 0.0 0.0 0.00 0.00 0.00 96 1012.2
20260509074734 73 68 0.0 0.0 0.00 0.00 0.00 96 1012.3
20260509074232 73 68 0.0 0.0 0.00 0.00 0.00 96 1012.3
20260509073728 73 77 0.0 2.0 0.00 0.00 0.00 96 1012.4
20260509073225 73 71 0.0 2.0 0.00 0.00 0.00 96 1012.4
20260509072721 73 79 0.0 1.0 0.00 0.00 0.00 96 1012.6
20260509072218 73 67 0.0 0.0 0.00 0.00 0.00 96 1012.5
20260509071715 73 66 0.0 0.0 0.00 0.00 0.00 95 1012.9
20260509071212 73 66 0.0 0.0 0.00 0.00 0.00 95 1012.7
20260509070709 73 68 0.0 0.0 0.00 0.00 0.00 95 1012.7
20260509070205 73 78 0.0 1.0 0.00 0.00 0.00 95 1012.5
20260509065702 73 66 0.0 0.0 0.00 0.00 0.00 95 1012.6
20260509065158 73 71 0.0 0.0 0.00 0.00 0.00 95 1012.6
20260509064655 73 66 0.0 0.0 0.00 0.00 0.00 95 1012.6
20260509064152 73 67 0.0 0.0 0.00 0.00 0.00 95 1012.4
20260509063649 73 79 1.0 2.0 0.00 0.00 0.00 95 1012.3
20260509063145 73 92 1.0 2.0 0.00 0.00 0.00 95 1012.3
20260509062643 73 93 0.0 2.0 0.00 0.00 0.00 95 1012.4
20260509062140 73 79 0.0 3.0 0.00 0.00 0.00 94 1012.1
20260509061636 73 78 0.0 1.0 0.00 0.00 0.00 94 1012.1
20260509061134 73 104 2.0 4.0 0.00 0.00 0.00 94 1012.5
20260509060632 73 91 0.0 2.0 0.00 0.00 0.00 94 1012.2
20260509060127 73 76 1.0 2.0 0.00 0.00 0.00 94 1012.5
20260509055623 73 70 1.0 3.0 0.00 0.00 0.00 94 1012.6
20260509055119 73 81 1.0 1.0 0.00 0.00 0.00 94 1012.4
20260509054616 73 62 0.0 3.0 0.00 0.00 0.00 94 1012.2
20260509054114 73 74 0.0 1.0 0.00 0.00 0.00 94 1012.3
20260509053612 73 70 0.0 0.0 0.00 0.00 0.00 94 1012.3
20260509053109 73 63 0.0 1.0 0.00 0.00 0.00 94 1012.1
20260509052607 73 72 0.0 1.0 0.00 0.00 0.00 94 1012.0
20260509052104 73 72 0.0 2.0 0.00 0.00 0.00 94 1012.0
20260509051602 73 125 2.0 3.0 0.00 0.00 0.00 94 1012.0
20260509051059 73 93 2.0 6.0 0.00 0.00 0.00 94 1012.0
20260509050556 73 61 2.0 3.0 0.00 0.00 0.00 94 1011.9
20260509050052 73 93 2.0 3.0 0.00 0.02 0.02 94 1012.1
20260509045550 73 93 2.0 4.0 0.00 0.02 0.02 94 1012.1
20260509045046 73 187 2.0 6.0 0.00 0.02 0.02 94 1012.3
20260509044544 73 128 2.0 4.0 0.00 0.02 0.02 94 1012.1
20260509044041 73 91 1.0 2.0 0.00 0.02 0.02 94 1011.7
20260509043537 74 81 2.0 3.0 0.00 0.02 0.02 93 1011.9
20260509043033 74 87 1.0 4.0 0.00 0.02 0.02 93 1011.6
20260509042529 74 134 2.0 3.0 0.00 0.02 0.02 93 1011.7
20260509042026 74 115 2.0 4.0 0.00 0.02 0.02 92 1012.0
20260509041522 74 82 1.0 2.0 0.00 0.02 0.02 92 1011.7
20260509041020 74 92 0.0 2.0 0.00 0.02 0.02 91 1011.7
20260509040518 74 77 3.0 3.0 0.00 0.02 0.02 91 1011.8
20260509040015 74 73 1.0 3.0 0.00 0.02 0.02 91 1011.7
20260509035512 74 125 2.0 4.0 0.00 0.02 0.02 91 1011.8
20260509035008 74 135 2.0 3.0 0.00 0.02 0.02 90 1011.6
20260509034507 74 130 4.0 7.0 0.00 0.02 0.02 90 1011.6
20260509034003 75 77 1.0 2.0 0.00 0.02 0.02 90 1011.5
20260509033500 75 93 1.0 4.0 0.00 0.02 0.02 89 1011.7
20260509032957 75 81 0.0 6.0 0.00 0.02 0.02 89 1011.7
20260509032454 75 72 2.0 4.0 0.00 0.02 0.02 89 1011.6
20260509031952 75 67 2.0 4.0 0.00 0.02 0.02 89 1011.4
20260509031449 75 83 3.0 6.0 0.00 0.02 0.02 89 1011.5
20260509030946 75 86 1.0 4.0 0.00 0.02 0.02 89 1011.4
20260509030444 75 114 2.0 3.0 0.00 0.02 0.02 88 1011.5
20260509025941 75 97 2.0 2.0 0.00 0.02 0.02 88 1011.4
20260509025437 75 106 2.0 2.0 0.00 0.02 0.02 88 1011.5
20260509024932 75 114 2.0 4.0 0.00 0.02 0.02 88 1011.3
20260509024428 75 99 2.0 3.0 0.00 0.02 0.02 88 1011.4
20260509023925 75 64 1.0 4.0 0.00 0.02 0.02 88 1011.4
20260509023423 75 125 2.0 3.0 0.00 0.02 0.02 88 1011.2
20260509022919 76 83 1.0 2.0 0.00 0.02 0.02 87 1011.4
20260509022416 76 89 3.0 4.0 0.00 0.02 0.02 87 1011.4
20260509021914 76 99 2.0 4.0 0.00 0.02 0.02 87 1011.3
20260509021410 76 78 0.0 1.0 0.00 0.02 0.02 87 1011.2
20260509020908 76 73 0.0 2.0 0.00 0.02 0.02 86 1011.3
20260509020406 76 79 1.0 2.0 0.00 0.02 0.02 86 1011.3
20260509015903 76 113 1.0 2.0 0.00 0.02 0.02 86 1011.1
20260509015401 76 79 0.0 2.0 0.00 0.02 0.02 86 1011.2
20260509014857 76 81 0.0 1.0 0.00 0.02 0.02 86 1011.0
20260509014354 76 76 0.0 1.0 0.00 0.02 0.02 86 1011.1
20260509013851 76 70 0.0 1.0 0.00 0.02 0.02 86 1011.4
20260509013348 77 80 0.0 2.0 0.00 0.02 0.02 86 1011.1
20260509012843 77 85 0.0 1.0 0.00 0.02 0.02 86 1011.2
20260509012340 77 84 0.0 1.0 0.00 0.02 0.02 86 1011.2
20260509011838 77 65 1.0 2.0 0.00 0.02 0.02 86 1010.9
20260509011335 77 79 0.0 2.0 0.00 0.02 0.02 85 1011.0
20260509010833 77 82 0.0 1.0 0.00 0.02 0.02 86 1010.8
20260509010330 77 69 0.0 2.0 0.00 0.02 0.02 86 1010.9
20260509005827 77 90 1.0 2.0 0.00 0.02 0.02 85 1010.9
20260509005325 77 117 2.0 2.0 0.00 0.02 0.02 85 1010.9
20260509004825 77 109 1.0 2.0 0.00 0.02 0.02 85 1010.7
20260509004322 77 73 1.0 2.0 0.00 0.02 0.02 84 1010.6
20260509003820 77 106 2.0 3.0 0.00 0.02 0.02 83 1010.6
20260509003317 77 104 1.0 2.0 0.00 0.02 0.02 83 1010.8
20260509002814 78 78 0.0 2.0 0.00 0.02 0.02 83 1010.9
20260509002312 78 79 1.0 4.0 0.00 0.02 0.02 83 1010.9
20260509001809 78 88 1.0 3.0 0.00 0.02 0.02 83 1010.8
20260509001305 78 73 0.0 2.0 0.00 0.02 0.02 83 1010.8
20260509000803 78 89 2.0 4.0 0.00 0.02 0.02 83 1010.9
20260509000300 78 93 2.0 3.0 0.00 0.02 0.02 82 1010.9
20260508235756 78 73 1.0 2.0 0.00 0.02 0.02 82 1010.6
20260508235253 78 153 1.0 2.0 0.00 0.02 0.02 81 1010.6
20260508234751 78 76 0.0 4.0 0.00 0.02 0.02 81 1010.7
20260508234247 79 79 2.0 3.0 0.00 0.02 0.02 81 1010.8
20260508233746 79 79 1.0 3.0 0.00 0.02 0.02 80 1010.8
20260508233244 79 101 4.0 6.0 0.00 0.02 0.02 80 1010.8
20260508232741 79 104 1.0 2.0 0.00 0.02 0.02 81 1010.7
20260508232238 79 65 2.0 2.0 0.00 0.02 0.02 80 1010.8
20260508231736 79 110 2.0 3.0 0.00 0.02 0.02 80 1010.9
20260508231232 79 88 1.0 2.0 0.00 0.02 0.02 80 1010.8
20260508230729 79 77 1.0 4.0 0.00 0.02 0.02 79 1010.7
20260508230225 80 93 1.0 4.0 0.00 0.02 0.02 79 1010.6
20260508225723 79 90 2.0 3.0 0.00 0.02 0.02 79 1010.5
20260508225219 79 92 2.0 3.0 0.00 0.02 0.02 80 1010.8
20260508224717 79 69 1.0 1.0 0.00 0.02 0.02 79 1010.9
20260508224215 79 111 1.0 1.0 0.00 0.02 0.02 79 1011.0
20260508223712 79 49 0.0 2.0 0.00 0.02 0.02 79 1011.0
20260508223209 79 77 1.0 3.0 0.00 0.02 0.02 78 1010.9
20260508222706 80 91 1.0 2.0 0.00 0.02 0.02 77 1011.1
20260508222204 80 76 1.0 1.0 0.00 0.02 0.02 77 1011.0
20260508221700 80 91 1.0 3.0 0.00 0.02 0.02 76 1010.8
20260508221155 80 76 1.0 2.0 0.00 0.02 0.02 75 1010.9
20260508220652 81 130 1.0 2.0 0.00 0.02 0.02 75 1010.9
20260508220149 81 93 1.0 2.0 0.00 0.02 0.02 75 1010.8
20260508215645 81 70 0.0 1.0 0.00 0.02 0.02 74 1011.0
20260508215142 81 67 0.0 1.0 0.00 0.02 0.02 75 1010.8
20260508214639 81 92 1.0 3.0 0.00 0.02 0.02 75 1011.0
20260508214137 81 89 2.0 2.0 0.00 0.02 0.02 74 1011.1
20260508213633 81 72 0.0 2.0 0.00 0.02 0.02 74 1011.1
20260508213129 82 90 2.0 2.0 0.00 0.02 0.02 71 1011.1
20260508212626 82 79 0.0 1.0 0.00 0.02 0.02 73 1011.1
20260508212122 82 71 0.0 1.0 0.00 0.02 0.02 72 1011.2
20260508211618 82 70 0.0 0.0 0.00 0.02 0.02 73 1011.3
20260508211114 81 64 0.0 0.0 0.00 0.02 0.02 74 1011.4
20260508210611 81 59 0.0 1.0 0.00 0.02 0.02 73 1011.6
20260508210109 81 62 0.0 1.0 0.00 0.02 0.02 74 1011.6
20260508205606 81 79 2.0 3.0 0.00 0.02 0.02 72 1011.7
20260508205102 82 80 0.0 2.0 0.00 0.02 0.02 72 1011.9
20260508204558 83 38 1.0 2.0 0.00 0.02 0.02 73 1011.6
20260508204054 82 76 0.0 2.0 0.00 0.02 0.02 73 1011.7
20260508203551 82 82 0.0 1.0 0.00 0.02 0.02 73 1012.0
20260508203046 81 103 2.0 2.0 0.00 0.02 0.02 73 1012.1
20260508202544 80 76 0.0 1.0 0.00 0.02 0.02 74 1011.9
20260508202041 80 84 1.0 2.0 0.00 0.02 0.02 74 1012.1
20260508201537 79 79 0.0 2.0 0.00 0.02 0.02 76 1012.2
20260508201034 79 77 1.0 3.0 0.00 0.02 0.02 75 1012.2
20260508200531 79 67 0.0 2.0 0.00 0.02 0.02 76 1012.2
20260508200027 80 65 0.0 1.0 0.00 0.02 0.02 76 1012.5
20260508195524 80 103 2.0 3.0 0.00 0.02 0.02 73 1012.5
20260508195020 81 86 0.0 1.0 0.00 0.02 0.02 73 1012.4
20260508194517 80 67 0.0 1.0 0.00 0.02 0.02 75 1012.4
20260508194014 81 66 1.0 1.0 0.00 0.02 0.02 72 1012.4
20260508193510 81 83 1.0 2.0 0.00 0.02 0.02 74 1012.5
20260508193007 81 61 0.0 2.0 0.00 0.02 0.02 74 1012.6
20260508192504 81 46 2.0 2.0 0.00 0.02 0.02 74 1012.5
20260508192001 80 29 2.0 3.0 0.00 0.02 0.02 76 1012.5
20260508191458 79 74 0.0 2.0 0.00 0.02 0.02 77 1012.5
20260508190954 79 66 0.0 1.0 0.00 0.02 0.02 75 1012.9
20260508190452 79 63 1.0 1.0 0.00 0.02 0.02 76 1012.8
20260508185948 80 66 0.0 1.0 0.00 0.02 0.02 75 1012.9
20260508185446 79 58 1.0 1.0 0.00 0.02 0.02 77 1013.0
20260508184943 79 94 1.0 2.0 0.00 0.02 0.02 75 1013.2
20260508184440 79 74 0.0 1.0 0.00 0.02 0.02 74 1013.3
20260508183937 78 65 0.0 1.0 0.00 0.02 0.02 78 1013.4
20260508183433 78 116 1.0 2.0 0.00 0.02 0.02 76 1013.2
20260508182928 77 69 1.0 2.0 0.00 0.02 0.02 77 1013.4
20260508182426 77 55 1.0 2.0 0.00 0.02 0.02 78 1013.6
20260508181926 76 69 1.0 2.0 0.00 0.02 0.02 79 1013.5
20260508181423 76 97 2.0 3.0 0.00 0.02 0.02 78 1013.5
20260508180921 75 78 1.0 2.0 0.00 0.02 0.02 80 1013.8
20260508180417 74 92 1.0 2.0 0.00 0.02 0.02 81 1013.7
20260508175913 75 99 1.0 2.0 0.00 0.02 0.02 81 1013.9
20260508175410 75 74 0.0 3.0 0.00 0.02 0.02 81 1013.9
20260508174908 75 67 0.0 1.0 0.00 0.02 0.02 82 1013.9
20260508174405 74 68 0.0 1.0 0.00 0.02 0.02 82 1014.0
20260508173902 73 77 1.0 1.0 0.00 0.02 0.02 82 1014.3
20260508173359 73 79 0.0 1.0 0.00 0.02 0.02 83 1014.2
20260508172854 73 70 0.0 0.0 0.00 0.02 0.02 84 1014.1
20260508172352 72 70 0.0 1.0 0.00 0.02 0.02 83 1014.4
20260508171848 73 70 0.0 1.0 0.00 0.02 0.02 84 1014.2
20260508171345 72 60 0.0 0.0 0.00 0.02 0.02 85 1014.3
20260508170841 72 64 0.0 1.0 0.00 0.02 0.02 85 1014.4
20260508170340 71 65 0.0 1.0 0.00 0.02 0.02 85 1014.4
20260508165836 71 73 0.0 1.0 0.00 0.02 0.02 85 1014.4
20260508165333 71 57 0.0 1.0 0.00 0.02 0.02 85 1014.4
20260508164829 71 63 0.0 1.0 0.00 0.02 0.02 85 1014.3
20260508164326 71 57 0.0 1.0 0.00 0.02 0.02 85 1014.3
20260508163824 71 51 1.0 2.0 0.00 0.02 0.02 86 1014.4
20260508163322 70 55 1.0 2.0 0.00 0.02 0.02 86 1014.4
20260508162817 71 74 0.0 1.0 0.00 0.02 0.02 86 1014.4
20260508162314 70 70 0.0 1.0 0.00 0.02 0.02 86 1014.5
20260508161811 70 68 0.0 1.0 0.00 0.02 0.02 87 1014.5
20260508161308 69 61 0.0 0.0 0.00 0.02 0.02 88 1014.8
20260508160806 69 62 0.0 0.0 0.00 0.02 0.02 88 1014.8
20260508160304 69 96 0.0 1.0 0.00 0.02 0.02 89 1014.7
20260508155800 68 88 0.0 2.0 0.00 0.02 0.02 88 1014.7
20260508155257 68 76 0.0 1.0 0.00 0.02 0.02 89 1014.9
20260508154754 68 86 1.0 3.0 0.00 0.02 0.02 88 1015.0
20260508154252 68 86 0.0 1.0 0.00 0.02 0.02 89 1014.8
20260508153748 68 71 1.0 1.0 0.00 0.02 0.02 89 1014.8
20260508153246 68 65 1.0 2.0 0.00 0.02 0.02 89 1015.0
20260508152742 67 106 1.0 3.0 0.00 0.02 0.02 89 1015.3
20260508152238 68 71 0.0 2.0 0.00 0.02 0.02 91 1015.4
20260508151734 67 66 0.0 1.0 0.00 0.02 0.02 91 1015.5
20260508151231 67 84 3.0 4.0 0.00 0.02 0.02 91 1015.6
20260508150728 66 80 0.0 3.0 0.00 0.02 0.02 92 1015.6
20260508150225 65 46 0.0 2.0 0.00 0.02 0.02 93 1015.7
20260508145720 65 119 2.0 3.0 0.00 0.02 0.02 93 1015.6
20260508145217 65 85 0.0 1.0 0.00 0.02 0.02 94 1015.5
20260508144714 65 73 0.0 2.0 0.00 0.02 0.02 95 1015.9
20260508144212 64 83 1.0 2.0 0.00 0.02 0.02 95 1015.6
20260508143709 64 114 1.0 1.0 0.00 0.02 0.02 96 1015.5
20260508143206 63 75 0.0 1.0 0.00 0.02 0.02 96 1015.4
20260508142702 63 82 1.0 1.0 0.00 0.02 0.02 96 1015.5
20260508142159 63 82 2.0 2.0 0.00 0.02 0.02 96 1015.3
20260508141655 63 52 0.0 1.0 0.00 0.02 0.02 97 1015.4
20260508141153 63 89 2.0 2.0 0.00 0.02 0.02 97 1015.4
20260508140651 62 85 1.0 4.0 0.00 0.02 0.02 97 1015.5
20260508140147 63 73 0.0 0.0 0.00 0.02 0.02 97 1015.5
20260508135643 63 63 0.0 2.0 0.00 0.02 0.02 97 1015.5
20260508135139 62 70 0.0 0.0 0.00 0.02 0.02 97 1015.6
20260508134636 62 63 0.0 1.0 0.00 0.02 0.02 97 1015.4
20260508134133 62 103 1.0 2.0 0.00 0.02 0.02 97 1015.3
20260508133629 62 72 0.0 1.0 0.00 0.02 0.02 97 1015.4
20260508133127 62 78 0.0 2.0 0.00 0.02 0.02 97 1015.3
20260508132625 62 72 1.0 2.0 0.00 0.02 0.02 97 1015.5
20260508132121 62 83 1.0 2.0 0.00 0.02 0.02 97 1015.6
20260508131617 62 72 0.0 1.0 0.00 0.02 0.02 97 1015.5
20260508131114 62 65 0.0 0.0 0.00 0.02 0.02 97 1015.4
20260508130611 62 64 0.0 0.0 0.07 0.02 0.02 96 1015.7
20260508130108 62 62 0.0 0.0 0.12 0.02 0.02 96 1015.6
20260508125608 62 62 0.0 1.0 0.05 0.01 0.01 96 1015.8
20260508125106 62 74 0.0 1.0 0.00 0.00 0.00 96 1015.7
20260508124604 62 79 0.0 0.0 0.00 0.00 0.00 95 1015.7
20260508124100 62 68 0.0 1.0 0.00 0.00 0.00 95 1015.8
20260508123559 62 75 0.0 1.0 0.00 0.00 0.00 94 1015.7
20260508123055 62 62 0.0 0.0 0.00 0.00 0.00 94 1015.7
20260508122552 62 63 0.0 1.0 0.00 0.00 0.00 93 1015.9
20260508122049 62 61 0.0 1.0 0.00 0.00 0.00 93 1016.1
20260508121548 62 66 0.0 1.0 0.00 0.00 0.00 92 1016.0
20260508121045 62 58 0.0 0.0 0.00 0.00 0.00 91 1016.0
20260508120542 62 66 0.0 0.0 0.00 0.00 0.00 91 1016.0
20260508120041 62 69 0.0 1.0 0.00 0.00 0.00 90 1016.1
20260508115537 62 65 0.0 1.0 0.00 0.00 0.00 90 1016.0
20260508115034 62 35 1.0 2.0 0.00 0.00 0.00 90 1016.1
20260508114531 62 60 0.0 3.0 0.00 0.00 0.00 90 1016.0
20260508114027 62 46 1.0 2.0 0.00 0.00 0.00 89 1016.2
20260508113525 62 70 0.0 1.0 0.00 0.00 0.00 89 1016.0
20260508113023 62 65 0.0 1.0 0.00 0.00 0.00 89 1015.9
20260508112519 62 61 0.0 1.0 0.00 0.00 0.00 89 1015.9
20260508112016 62 63 0.0 1.0 0.00 0.00 0.00 89 1015.7
20260508111513 62 64 0.0 1.0 0.00 0.00 0.00 89 1015.7
20260508111010 62 63 0.0 1.0 0.00 0.00 0.00 89 1015.5
20260508110508 63 63 0.0 1.0 0.00 0.00 0.00 89 1015.4
20260508110003 63 55 0.0 1.0 0.00 0.00 0.00 89 1015.5
20260508105458 62 60 0.0 0.0 0.00 0.00 0.00 89 1015.3
20260508104956 62 63 0.0 0.0 0.00 0.00 0.00 89 1015.0
20260508104453 62 65 0.0 0.0 0.00 0.00 0.00 88 1015.3
20260508103950 62 66 0.0 0.0 0.00 0.00 0.00 88 1015.5
20260508103447 63 66 0.0 0.0 0.00 0.00 0.00 88 1015.5